Regional Weather Roundup
Issued by NWS

Home | Current Version | Previous Version | Text Only | Print | Product List | Glossary On
Versions: 1 2 3 4 5 6 7 8 9 10 11 12 13 14 15 16 17 18 19 20 21 22 23 24 25 26 27 28 29 30 31 32 33 34 35 36 37 38 39 40 41 42 43 44 45 46 47 48 49 50
000
ASUS44 KEWX 261402
RWRTX
SOUTH TEXAS REGIONAL WEATHER ROUNDUP
NATIONAL WEATHER SERVICE AUSTIN/SAN ANTONIO TX
800 AM CST MON JAN 26 2015

NOTE: "FAIR" INDICATED FEW OR NO CLOUDS BELOW 12,000 FEET WITH NO
SIGNIFICANT WEATHER AND/OR OBSTRUCTIONS TO VISIBILITY.

* - THESE STATIONS ARE NOT NWS OR FAA STATIONS...AND ARE NOT SUBJECT
    TO NWS AND FAA QUALITY CONTROL.

TXZ171-172-183>190-261500-
TEXAS HILL COUNTRY AND EDWARDS PLATEAU

CITY           SKY/WX    TMP DP  RH WIND       PRES   REMARKS
JUNCTION       MOCLDY    31  28  89 CALM      30.29R
*LLANO         CLEAR     39  32  75 CALM      30.31R
BURNET         CLEAR     43  32  65 W6        30.29R WCI  39
*HORSESHOE BAY CLEAR     37  32  82 CALM      30.28R
*KERRVILLE     PTCLDY    36  32  85 NW5       30.28S WCI  32
*FREDERICKSBRG CLEAR     34  30  85 CALM      30.28R
*ROCKSPRINGS   MOCLDY    46  28  49 CALM      30.30R
*BOERNE STAGE  PTCLDY    43  32  65 CALM      30.28R
*CASTROVILLE   PTCLDY    40  33  74 NW8       30.28R WCI  35
HONDO          PTCLDY    38  32  79 NW3       30.29R
*UVALDE        PTCLDY    39  34  81 CALM      30.29R
DEL RIO        MOCLDY    40  36  86 NW7       30.29R WCI  35
LAUGHLIN AFB   MOCLDY    37  34  87 NW5       30.29R WCI  34
CARRIZO SPRGS  MOCLDY    43  36  75 NW3       30.28S
$$

TXZ173-191>194-202-209-217>225-228-261500-
CENTRAL AND SOUTH CENTRAL TEXAS

CITY           SKY/WX    TMP DP  RH WIND       PRES   REMARKS
GEORGETOWN     CLEAR     41  32  70 MISG      30.27
AUSTIN/BERGSTM PTCLDY    39  34  82 CALM      30.27R
AUSTIN/MABRY   CLEAR     46  33  60 NW6       30.28R WCI  43
*AUSTIN/EXEC   PTCLDY    43  32  65 NW3       30.28R
*LAGO VISTA    PTCLDY    46  33  59 W6        30.27S WCI  43
SAN MARCOS     CLEAR     43  34  70 N5        30.26R WCI  40
NEW BRAUNFELS  PTCLDY    40  33  76 CALM      30.26R
RANDOLPH AFB   PTCLDY    43  34  70 NW8       30.26R WCI  38
PT SAN ANTONIO PTCLDY    41  33  74 CALM      30.25R
SAN ANTONIO    MOCLDY    44  35  70 NW5       30.27R WCI  42
STINSON FIELD  PTCLDY    38  34  85 CALM      30.26R
*PLEASANTON    PTCLDY    43  35  72 CALM      30.28R
*LA GRANGE     CLEAR     38  35  89 CALM      30.27R
*GIDDINGS      NOT AVBL
*GONZALES      CLEAR     42  35  76 CALM      30.27R
$$

TXZ163>164-176>182-195>201-210>213-226-227-235-261500-
SOUTHEAST TEXAS

CITY           SKY/WX    TMP DP  RH WIND       PRES   REMARKS
COLLEGE STN    CLEAR     41  32  70 NW3       30.26R
*BRYAN         CLEAR     39  32  75 CALM      30.26R
*CALDWELL      CLEAR     39  32  75 W6        30.30R WCI  35
*CROCKETT      CLEAR     34  32  93 NE3       30.25S
*BRENHAM       CLEAR     45  33  63 W6        30.28R WCI  41
HUNTSVILLE     CLEAR     41  31  67 CALM      30.23R
CONROE         CLEAR     39  34  82 CALM      30.24R
HOUSTON BUSH   PTCLDY    49  31  49 W3        30.24R
HOUSTON HOBBY  PTCLDY    47  33  58 W7        30.25R WCI  44
*HOUSTON SW AP CLEAR     38  35  89 W3        30.27R
PEARLAND       CLEAR     43  34  70 W3        30.27R
HOUSTON HOOKS  CLEAR     42  34  73 CALM      30.25R
ELLINGTON FLD  PTCLDY    50  28  43 W5        30.26R WCI  48
SUGAR LAND     CLEAR     43  34  70 W5        30.26R WCI  40
*HOUSTON EXEC    N/A    N/A N/A N/A MISG        N/A
*CLEVELAND MUN NOT AVBL
*WHARTON       CLEAR     42  36  80 NW3       30.28R
*COLUMBUS      FAIR      41  35  80 CALM      30.27R
$$

TXZ214>216-236>238-261500-
THE UPPER TEXAS COAST

CITY           SKY/WX    TMP DP  RH WIND       PRES   REMARKS
*ORANGE        CLEAR     47  33  59 NW7       30.22R WCI  43
PORT ARTHUR    CLEAR     50  34  54 N10       30.21R WCI  46
GALVESTON      CLEAR     48  39  71 W9        30.26R WCI  44
ANGLETON       CLEAR     41  36  82 CALM      30.26R
*BAY CITY      CLEAR     45  38  79 NW3       30.27R
PALACIOS       CLEAR     44  38  79 NW5       30.27  WCI  42
$$

TXZ229>234-239>247-261500-
TEXAS COASTAL BEND AND RIO GRANDE PLAINS

CITY           SKY/WX    TMP DP  RH WIND       PRES   REMARKS
VICTORIA       CLEAR     44  38  79 NW9       30.28R WCI  39
*BEEVILLE      CLEAR     47  40  78 NW7       30.27R WCI  43
ROCKPORT       PTCLDY    51  41  68 NW6       30.26R
*PORT ARANSAS  CLEAR     51  44  78 W5        30.27R
*PORT LAVACA   CLEAR     41  38  88 N5        30.28R WCI  38
*INGLESIDE     PTCLDY    45  39  79 W5        30.26R WCI  42
CORPUS CHRISTI MOCLDY    43  40  89 W6        30.28R WCI  39
CORPUS NAS     MOCLDY    48  44  86 W6        30.27R WCI  45
*ROBSTOWN      PTCLDY    44  39  85 NW3       30.28
ALICE          PTCLDY    47  40  76 NW5       30.27R WCI  45
KINGSVILLE NAS MOCLDY    45  41  86 NW7       30.28R WCI  41
COTULLA        MOCLDY    42  39  89 NW3       30.29R
*FAITH RANCH   MOCLDY    45  37  76 N6        30.29R WCI  41
LAREDO         NOT AVBL
$$

TXZ248>255-261500-
DEEP SOUTH TEXAS

CITY           SKY/WX    TMP DP  RH WIND       PRES   REMARKS
BROWNSVILLE    CLEAR     51  43  74 N5        30.28R
PORT ISABEL    CLEAR     50  43  77 NW6       30.27R WCI  48
*SOUTH PADRE   CLEAR    N/A N/A N/A CALM      30.26S
HARLINGEN      CLEAR     47  42  83 NW6       30.27S WCI  44
*HEBBRONVILLE  CLEAR     47  39  73 W5        30.28S WCI  45
MCALLEN        CLEAR     49  43  80 W3        30.29R
*WESLACO       CLEAR     47  40  78 CALM      30.28R
FALFURRIAS     PTCLDY    45  39  80 CALM      30.28R
EDINBURG       CLEAR     47  39  74 CALM      30.29R
*ZAPATA        CLEAR     41  39  91 CALM      30.28R
$$

TXZ213>215-236>238-242>244-246-247-251-254-255-261500-
CMAN STATIONS

STATION/POSITION TIME  TEMP    WIND        PRES    WAVE
                       AIR SEA DIR/SP/G            HT/PER
                 (UTC) (F)     (DEG/KT/KT) (MB)    (FT/S)
SEA RIM ST PARK  1300   44     300/  7/  7 1022.8
NORTH JETTY/GLS  1300   52 53  310/  7/  8   N/A
EAGLE POINT      1300   45 52  280/  5/  6 1024.2
MORGANS POINT    1300   53      10/  6/ 10 1023.8
MISSION/ARANSAS  1300   52     VRB  5      1025.0
PORT O`CONNOR    1300          310/  6/  6   N/A
PORT ARANSAS     1300   53 55  260/  7/  9 1024.8
MALAQUITE BEACH  1300   49 58  270/  8/  8 1024.4
BAFFIN BAY       1300   53     290/  5/  6 1024.7
PORT ISABEL      1300   53 56  330/  6/  7 1024.8
$$

GMZ080-GMZ150>470-261500-
OFFSHORE BUOY REPORTS

STATION/POSITION TIME  TEMP    WIND        PRES    WAVE
                       AIR SEA DIR/SP/G            HT/PER
                 (UTC) (F)     (DEG/KT/KT) (MB)    (FT/S)
20 E GALVESTON   1400   54 55  340/ 12/ 14 1023.6    2/ 4
90 E PT ARANSAS  1400   64 68  330/ 16/ 17 1024.6    2/ 4
35 NE PT MANSFLD 1400   64 66  340/  4/  6 1024.7    1/ 3
200 E PT ISABEL  1300   67 72  360/ 19/ 23 1022.0    7/ 7
$$



USA.gov is the U.S. government's official web portal to all federal, state and local government web resources and services.